Location: Albany
(35.0000°S, 118.0000°E)
Time: 17:33:12
(UTC-04:00)

ISS - All Passes

Search period start: 24 April 2014 00:00
Search period end: 04 May 2014 00:00
Orbit: 412 x 418 km, 51.6° (Epoch: 24 April)

Date Brightness Start Highest point End Pass type
(mag) Time Alt. Az. Time Alt. Az. Time Alt. Az.
24 Apr - 12:35:00 10° NW 12:38:22 73° SW 12:41:46 10° SE night (unlit)
24 Apr - 14:14:19 10° SW 14:15:36 12° SSW 14:16:54 10° S night (unlit)
24 Apr - 19:06:41 10° SSW 19:09:43 30° SE 19:12:44 10° E daylight
24 Apr - 20:43:37 10° WSW 20:46:19 22° NW 20:49:00 10° N daylight
25 Apr - 11:46:17 10° NNW 11:49:35 56° NE 11:52:56 10° SE night (unlit)
25 Apr - 13:24:15 10° WSW 13:26:33 17° SSW 13:28:51 10° SSE night (unlit)
25 Apr - 18:18:13 10° SSW 18:20:44 19° SSE 18:23:14 10° E daylight
25 Apr - 19:54:22 10° WSW 19:57:36 44° NW 20:00:48 10° NNE daylight
26 Apr - 10:57:51 10° NNW 11:00:47 28° NE 11:03:45 10° ESE night (unlit)
26 Apr - 12:34:35 10° W 12:37:28 26° SW 12:40:23 10° SSE night (unlit)
26 Apr - 17:29:55 10° S 17:31:35 13° SSE 17:33:16 10° SE visible
26 Apr - 19:05:20 10° SW 19:08:44 90° NNW 19:12:05 10° NE daylight
27 Apr - 10:09:58 10° NNE 10:11:58 15° NE 10:13:58 10° E night (unlit)
27 Apr - 11:45:08 10° WNW 11:48:22 43° SW 11:51:39 10° SE night (unlit)
27 Apr - 18:16:24 10° SW 18:19:41 46° SE 18:22:56 10° ENE visible
27 Apr - 19:54:17 10° W 19:56:04 14° NW 19:57:50 10° NNW daylight
28 Apr - 10:55:53 10° NW 10:59:15 84° SW 11:02:40 10° SE night (unlit)
28 Apr - 12:34:51 10° SW 12:36:25 13° SSW 12:37:59 10° S night (unlit)
28 Apr - 17:27:32 10° SSW 17:30:29 27° SE 17:33:24 10° E visible
28 Apr - 19:04:15 10° WSW 19:07:07 26° NW 19:09:57 10° N daylight
29 Apr - 10:06:53 10° NNW 10:10:08 47° NE 10:13:24 10° ESE night (unlit)
29 Apr - 11:44:33 10° WSW 11:47:00 18° SSW 11:49:28 10° SSE night (unlit)
29 Apr - 16:38:46 10° SSW 16:41:07 17° SSE 16:43:28 10° ESE visible
29 Apr - 18:14:43 10° WSW 18:18:01 52° NW 18:21:17 10° NNE visible
30 Apr - 09:18:13 10° N 09:20:59 24° NE 09:23:46 10° ESE night (unlit)
30 Apr - 10:54:35 10° W 10:57:34 29° SW 11:00:35 10° SSE night (unlit)
30 Apr - 15:50:13 10° S 15:51:35 12° SSE 15:52:57 10° SE visible
30 Apr - 17:25:23 10° SW 17:28:46 77° SE 17:32:07 10° NE visible
01 May - 08:30:18 10° NNE 08:31:49 13° NE 08:33:20 10° E night (unlit)
01 May - 10:04:51 10° WNW 10:08:08 51° SW 10:11:27 10° SE night (unlit)
01 May - 16:36:07 10° SSW 16:39:21 39° SE 16:42:32 10° ENE visible
01 May - 18:13:35 10° W 18:15:46 16° NW 18:17:55 10° NNW visible
02 May - 09:15:19 10° NW 09:18:40 81° NE 09:22:04 10° SE night (unlit)
02 May - 10:53:53 10° WSW 10:55:44 14° SSW 10:57:34 10° S night (unlit)
02 May - 15:46:57 10° SSW 15:49:45 24° SSE 15:52:32 10° E visible
02 May - 17:23:24 10° WSW 17:26:26 31° NW 17:29:26 10° NNE visible
03 May - 08:26:04 10° NNW 08:29:12 38° NE 08:32:22 10° ESE night (unlit)
03 May - 10:03:21 10° W 10:05:58 21° SSW 10:08:36 10° SSE night (unlit)
03 May - 14:57:52 10° S 15:00:00 16° SSE 15:02:07 10° ESE night (unlit)
03 May - 16:33:36 10° SW 16:36:57 64° NW 16:40:16 10° NE visible
